Year,Month,Day,Hour,Minute,Value (Times are PST for temperature in C)
2020,08,10,00,00,18.70
2020,08,10,00,01,18.70
2020,08,10,00,02,18.70
2020,08,10,00,03,18.70
2020,08,10,00,04,18.70
2020,08,10,00,05,18.70
2020,08,10,00,06,18.70
2020,08,10,00,07,18.70
2020,08,10,00,08,18.70
2020,08,10,00,09,18.70
2020,08,10,00,10,18.70
2020,08,10,00,11,18.60
2020,08,10,00,12,18.60
2020,08,10,00,13,18.60
2020,08,10,00,14,18.60
2020,08,10,00,15,18.60
2020,08,10,00,16,18.60
2020,08,10,00,17,18.60
2020,08,10,00,18,18.60
2020,08,10,00,19,18.60
2020,08,10,00,20,18.60
2020,08,10,00,21,18.60
2020,08,10,00,22,18.60
2020,08,10,00,23,18.60
2020,08,10,00,24,18.60
2020,08,10,00,25,18.50
2020,08,10,00,26,18.40
2020,08,10,00,27,18.40
2020,08,10,00,28,18.40
2020,08,10,00,29,18.40
2020,08,10,00,30,18.30
2020,08,10,00,31,18.30
2020,08,10,00,32,18.30
2020,08,10,00,33,18.30
2020,08,10,00,34,18.30
2020,08,10,00,35,18.30
2020,08,10,00,36,18.20
2020,08,10,00,37,18.20
2020,08,10,00,38,18.30
2020,08,10,00,39,18.20
2020,08,10,00,40,18.20
2020,08,10,00,41,18.20
2020,08,10,00,42,18.20
2020,08,10,00,43,18.20
2020,08,10,00,44,18.10
2020,08,10,00,45,18.10
2020,08,10,00,46,18.10
2020,08,10,00,47,18.00
2020,08,10,00,48,18.00
2020,08,10,00,49,17.90
2020,08,10,00,50,18.00
2020,08,10,00,51,17.90
2020,08,10,00,52,17.90
2020,08,10,00,53,17.90
2020,08,10,00,54,17.90
2020,08,10,00,55,17.90
2020,08,10,00,56,17.80
2020,08,10,00,57,17.80
2020,08,10,00,58,17.80
2020,08,10,00,59,17.80
2020,08,10,01,00,17.80
2020,08,10,01,01,17.80
2020,08,10,01,02,17.70
2020,08,10,01,03,17.70
2020,08,10,01,04,17.60
2020,08,10,01,05,17.60
2020,08,10,01,06,17.60
2020,08,10,01,07,17.60
2020,08,10,01,08,17.60
2020,08,10,01,09,17.60
2020,08,10,01,10,17.60
2020,08,10,01,11,17.60
2020,08,10,01,12,17.60
2020,08,10,01,13,17.60
2020,08,10,01,14,17.60
2020,08,10,01,15,17.60
2020,08,10,01,16,17.60
2020,08,10,01,17,17.60
2020,08,10,01,18,17.60
2020,08,10,01,19,17.60
2020,08,10,01,20,17.60
2020,08,10,01,21,17.60
2020,08,10,01,22,17.60
2020,08,10,01,23,17.60
2020,08,10,01,24,17.60
2020,08,10,01,25,17.50
2020,08,10,01,26,17.60
2020,08,10,01,27,17.60
2020,08,10,01,28,17.50
2020,08,10,01,29,17.50
2020,08,10,01,30,17.50
2020,08,10,01,31,17.50
2020,08,10,01,32,17.40
2020,08,10,01,33,17.40
2020,08,10,01,34,17.40
2020,08,10,01,35,17.40
2020,08,10,01,36,17.40
2020,08,10,01,37,17.40
2020,08,10,01,38,17.40
2020,08,10,01,39,17.40
2020,08,10,01,40,17.40
2020,08,10,01,41,17.40
2020,08,10,01,42,17.30
2020,08,10,01,43,17.30
2020,08,10,01,44,17.30
2020,08,10,01,45,17.30
2020,08,10,01,46,17.30
2020,08,10,01,47,17.30
2020,08,10,01,48,17.30
2020,08,10,01,49,17.30
2020,08,10,01,50,17.30
2020,08,10,01,51,17.30
2020,08,10,01,52,17.30
2020,08,10,01,53,17.30
2020,08,10,01,54,17.30
2020,08,10,01,55,17.30
2020,08,10,01,56,17.30
2020,08,10,01,57,17.30
2020,08,10,01,58,17.30
2020,08,10,01,59,17.30
2020,08,10,02,00,17.30
2020,08,10,02,01,17.20
2020,08,10,02,02,17.20
2020,08,10,02,03,17.20
2020,08,10,02,04,17.20
2020,08,10,02,05,17.20
2020,08,10,02,06,17.20
2020,08,10,02,07,17.20
2020,08,10,02,08,17.20
2020,08,10,02,09,17.20
2020,08,10,02,10,17.20
2020,08,10,02,11,17.20
2020,08,10,02,12,17.20
2020,08,10,02,13,17.20
2020,08,10,02,14,17.20
2020,08,10,02,15,17.20
2020,08,10,02,16,17.20
2020,08,10,02,17,17.20
2020,08,10,02,18,17.20
2020,08,10,02,19,17.20
2020,08,10,02,20,17.20
2020,08,10,02,21,17.30
2020,08,10,02,22,17.30
2020,08,10,02,23,17.30
2020,08,10,02,24,17.30
2020,08,10,02,25,17.30
2020,08,10,02,26,17.30
2020,08,10,02,27,17.30
2020,08,10,02,28,17.30
2020,08,10,02,29,17.30
2020,08,10,02,30,17.30
2020,08,10,02,31,17.30
2020,08,10,02,32,17.30
2020,08,10,02,33,17.30
2020,08,10,02,34,17.30
2020,08,10,02,35,17.30
2020,08,10,02,36,17.20
2020,08,10,02,37,17.30
2020,08,10,02,38,17.30
2020,08,10,02,39,17.20
2020,08,10,02,40,17.20
2020,08,10,02,41,17.20
2020,08,10,02,42,17.20
2020,08,10,02,43,17.20
2020,08,10,02,44,17.20
2020,08,10,02,45,17.20
2020,08,10,02,46,17.30
2020,08,10,02,47,17.30
2020,08,10,02,48,17.30
2020,08,10,02,49,17.30
2020,08,10,02,50,17.30
2020,08,10,02,51,17.30
2020,08,10,02,52,17.30
2020,08,10,02,53,17.30
2020,08,10,02,54,17.30
2020,08,10,02,55,17.30
2020,08,10,02,56,17.30
2020,08,10,02,57,17.30
2020,08,10,02,58,17.30
2020,08,10,02,59,17.30
2020,08,10,03,00,17.30
2020,08,10,03,01,17.30
2020,08,10,03,02,17.20
2020,08,10,03,03,17.20
2020,08,10,03,04,17.20
2020,08,10,03,05,17.20
2020,08,10,03,06,17.20
2020,08,10,03,07,17.20
2020,08,10,03,08,17.20
2020,08,10,03,09,17.10
2020,08,10,03,10,17.10
2020,08,10,03,11,17.10
2020,08,10,03,12,17.00
2020,08,10,03,13,17.00
2020,08,10,03,14,17.00
2020,08,10,03,15,17.00
2020,08,10,03,16,16.90
2020,08,10,03,17,16.90
2020,08,10,03,18,16.90
2020,08,10,03,19,16.90
2020,08,10,03,20,16.90
2020,08,10,03,21,16.90
2020,08,10,03,22,16.90
2020,08,10,03,23,16.90
2020,08,10,03,24,16.90
2020,08,10,03,25,16.80
2020,08,10,03,26,16.80
2020,08,10,03,27,16.80
2020,08,10,03,28,16.80
2020,08,10,03,29,16.80
2020,08,10,03,30,16.80
2020,08,10,03,31,16.80
2020,08,10,03,32,16.80
2020,08,10,03,33,16.80
2020,08,10,03,34,16.80
2020,08,10,03,35,16.80
2020,08,10,03,36,16.70
2020,08,10,03,37,16.70
2020,08,10,03,38,16.70
2020,08,10,03,39,16.70
2020,08,10,03,40,16.70
2020,08,10,03,41,16.70
2020,08,10,03,42,16.70
2020,08,10,03,43,16.70
2020,08,10,03,44,16.70
2020,08,10,03,45,16.70
2020,08,10,03,46,16.70
2020,08,10,03,47,16.70
2020,08,10,03,48,16.70
2020,08,10,03,49,16.70
2020,08,10,03,50,16.70
2020,08,10,03,51,16.70
2020,08,10,03,52,16.70
2020,08,10,03,53,16.70
2020,08,10,03,54,16.70
2020,08,10,03,55,16.70
2020,08,10,03,56,16.70
2020,08,10,03,57,16.70
2020,08,10,03,58,16.70
2020,08,10,03,59,16.70
2020,08,10,04,00,16.70
2020,08,10,04,01,16.70
2020,08,10,04,02,16.70
2020,08,10,04,03,16.70
2020,08,10,04,04,16.70
2020,08,10,04,05,16.70
2020,08,10,04,06,16.70
2020,08,10,04,07,16.60
2020,08,10,04,08,16.60
2020,08,10,04,09,16.60
2020,08,10,04,10,16.70
2020,08,10,04,11,16.60
2020,08,10,04,12,16.60
2020,08,10,04,13,16.60
2020,08,10,04,14,16.60
2020,08,10,04,15,16.60
2020,08,10,04,16,16.60
2020,08,10,04,17,16.60
2020,08,10,04,18,16.60
2020,08,10,04,19,16.60
2020,08,10,04,20,16.60
2020,08,10,04,21,16.60
2020,08,10,04,22,16.60
2020,08,10,04,23,16.60
2020,08,10,04,24,16.50
2020,08,10,04,25,16.60
2020,08,10,04,26,16.50
2020,08,10,04,27,16.50
2020,08,10,04,28,16.50
2020,08,10,04,29,16.50
2020,08,10,04,30,16.50
2020,08,10,04,31,16.40
2020,08,10,04,32,16.40
2020,08,10,04,33,16.40
2020,08,10,04,34,16.40
2020,08,10,04,35,16.40
2020,08,10,04,36,16.40
2020,08,10,04,37,16.40
2020,08,10,04,38,16.40
2020,08,10,04,39,16.30
2020,08,10,04,40,16.30
2020,08,10,04,41,16.30
2020,08,10,04,42,16.30
2020,08,10,04,43,16.30
2020,08,10,04,44,16.30
2020,08,10,04,45,16.30
2020,08,10,04,46,16.30
2020,08,10,04,47,16.30
2020,08,10,04,48,16.30
2020,08,10,04,49,16.30
2020,08,10,04,50,16.30
2020,08,10,04,51,16.30
2020,08,10,04,52,16.30
2020,08,10,04,53,16.30
2020,08,10,04,54,16.20
2020,08,10,04,55,16.20
2020,08,10,04,56,16.20
2020,08,10,04,57,16.20
2020,08,10,04,58,16.20
2020,08,10,04,59,16.20
2020,08,10,05,00,16.20
2020,08,10,05,01,16.20
2020,08,10,05,02,16.10
2020,08,10,05,03,16.10
2020,08,10,05,04,16.10
2020,08,10,05,05,16.10
2020,08,10,05,06,16.10
2020,08,10,05,07,16.10
2020,08,10,05,08,16.00
2020,08,10,05,09,16.00
2020,08,10,05,10,16.00
2020,08,10,05,11,16.00
2020,08,10,05,12,15.90
2020,08,10,05,13,15.90
2020,08,10,05,14,15.90
2020,08,10,05,15,15.90
2020,08,10,05,16,15.80
2020,08,10,05,17,15.80
2020,08,10,05,18,15.80
2020,08,10,05,19,15.80
2020,08,10,05,20,15.80
2020,08,10,05,21,15.80
2020,08,10,05,22,15.80
2020,08,10,05,23,15.80
2020,08,10,05,24,15.70
2020,08,10,05,25,15.70
2020,08,10,05,26,15.70
2020,08,10,05,27,15.70
2020,08,10,05,28,15.70
2020,08,10,05,29,15.70
2020,08,10,05,30,15.60
2020,08,10,05,31,15.60
2020,08,10,05,32,15.60
2020,08,10,05,33,15.60
2020,08,10,05,34,15.60
2020,08,10,05,35,15.50
2020,08,10,05,36,15.50
2020,08,10,05,37,15.50
2020,08,10,05,38,15.40
2020,08,10,05,39,15.40
2020,08,10,05,40,15.40
2020,08,10,05,41,15.30
2020,08,10,05,42,15.30
2020,08,10,05,43,15.30
2020,08,10,05,44,15.20
2020,08,10,05,45,15.20
2020,08,10,05,46,15.20
2020,08,10,05,47,15.20
2020,08,10,05,48,15.10
2020,08,10,05,49,15.10
2020,08,10,05,50,15.10
2020,08,10,05,51,15.00
2020,08,10,05,52,15.00
2020,08,10,05,53,14.90
2020,08,10,05,54,14.90
2020,08,10,05,55,14.80
2020,08,10,05,56,14.80
2020,08,10,05,57,14.70
2020,08,10,05,58,14.70
2020,08,10,05,59,14.70
2020,08,10,06,00,14.70
2020,08,10,06,01,14.60
2020,08,10,06,02,14.60
2020,08,10,06,03,14.60
2020,08,10,06,04,14.60
2020,08,10,06,05,14.50
2020,08,10,06,06,14.50
2020,08,10,06,07,14.50
2020,08,10,06,08,14.40
2020,08,10,06,09,14.40
2020,08,10,06,10,14.40
2020,08,10,06,11,14.40
2020,08,10,06,12,14.30
2020,08,10,06,13,14.30
2020,08,10,06,14,14.30
2020,08,10,06,15,14.30
2020,08,10,06,16,14.30
2020,08,10,06,17,14.30
2020,08,10,06,18,14.20
2020,08,10,06,19,14.20
2020,08,10,06,20,14.20
2020,08,10,06,21,14.20
2020,08,10,06,22,14.20
2020,08,10,06,23,14.20
2020,08,10,06,24,14.10
2020,08,10,06,25,14.10
2020,08,10,06,26,14.10
2020,08,10,06,27,14.10
2020,08,10,06,28,14.10
2020,08,10,06,29,14.00
2020,08,10,06,30,14.00
2020,08,10,06,31,13.90
2020,08,10,06,32,13.90
2020,08,10,06,33,13.90
2020,08,10,06,34,13.90
2020,08,10,06,35,13.90
2020,08,10,06,36,14.00
2020,08,10,06,37,13.90
2020,08,10,06,38,13.90
2020,08,10,06,39,13.90
2020,08,10,06,40,13.90
2020,08,10,06,41,14.00
2020,08,10,06,42,14.00
2020,08,10,06,43,14.00
2020,08,10,06,44,14.00
2020,08,10,06,45,14.00
2020,08,10,06,46,14.10
2020,08,10,06,47,14.10
2020,08,10,06,48,14.10
2020,08,10,06,49,14.20
2020,08,10,06,50,14.20
2020,08,10,06,51,14.20
2020,08,10,06,52,14.20
2020,08,10,06,53,14.20
2020,08,10,06,54,14.30
2020,08,10,06,55,14.30
2020,08,10,06,56,14.30
2020,08,10,06,57,14.30
2020,08,10,06,58,14.40
2020,08,10,06,59,14.40
2020,08,10,07,00,14.40
2020,08,10,07,01,14.50
2020,08,10,07,02,14.60
2020,08,10,07,03,14.60
2020,08,10,07,04,14.60
2020,08,10,07,05,14.60
2020,08,10,07,06,14.60
2020,08,10,07,07,14.70
2020,08,10,07,08,14.70
2020,08,10,07,09,14.70
2020,08,10,07,10,14.70
2020,08,10,07,11,14.70
2020,08,10,07,12,14.70
2020,08,10,07,13,14.70
2020,08,10,07,14,14.70
2020,08,10,07,15,14.80
2020,08,10,07,16,14.70
2020,08,10,07,17,14.80
2020,08,10,07,18,14.80
2020,08,10,07,19,14.80
2020,08,10,07,20,14.80
2020,08,10,07,21,14.80
2020,08,10,07,22,14.80
2020,08,10,07,23,14.80
2020,08,10,07,24,14.90
2020,08,10,07,25,14.90
2020,08,10,07,26,15.00
2020,08,10,07,27,15.00
2020,08,10,07,28,15.00
2020,08,10,07,29,15.10
2020,08,10,07,30,15.10
2020,08,10,07,31,15.20
2020,08,10,07,32,15.20
2020,08,10,07,33,15.20
2020,08,10,07,34,15.30
2020,08,10,07,35,15.30
2020,08,10,07,36,15.40
2020,08,10,07,37,15.40
2020,08,10,07,38,15.40
2020,08,10,07,39,15.50
2020,08,10,07,40,15.60
2020,08,10,07,41,15.60
2020,08,10,07,42,15.60
2020,08,10,07,43,15.60
2020,08,10,07,44,15.70
2020,08,10,07,45,15.70
2020,08,10,07,46,15.70
2020,08,10,07,47,15.70
2020,08,10,07,48,15.80
2020,08,10,07,49,15.80
2020,08,10,07,50,15.80
2020,08,10,07,51,15.90
2020,08,10,07,52,15.90
2020,08,10,07,53,15.90
2020,08,10,07,54,15.90
2020,08,10,07,55,15.90
2020,08,10,07,56,16.00
2020,08,10,07,57,16.00
2020,08,10,07,58,16.00
2020,08,10,07,59,16.10
2020,08,10,08,00,16.10
2020,08,10,08,01,16.10
2020,08,10,08,02,16.10
2020,08,10,08,03,16.10
2020,08,10,08,04,16.10
2020,08,10,08,05,16.10
2020,08,10,08,06,16.10
2020,08,10,08,07,16.20
2020,08,10,08,08,16.20
2020,08,10,08,09,16.20
2020,08,10,08,10,16.20
2020,08,10,08,11,16.30
2020,08,10,08,12,16.30
2020,08,10,08,13,16.30
2020,08,10,08,14,16.40
2020,08,10,08,15,16.40
2020,08,10,08,16,16.40
2020,08,10,08,17,16.40
2020,08,10,08,18,16.40
2020,08,10,08,19,16.50
2020,08,10,08,20,16.50
2020,08,10,08,21,16.50
2020,08,10,08,22,16.50
2020,08,10,08,23,16.60
2020,08,10,08,24,16.60
2020,08,10,08,25,16.60
2020,08,10,08,26,16.70
2020,08,10,08,27,16.70
2020,08,10,08,28,16.70
2020,08,10,08,29,16.70
2020,08,10,08,30,16.70
2020,08,10,08,31,16.80
2020,08,10,08,32,16.80
2020,08,10,08,33,16.80
2020,08,10,08,34,16.90
2020,08,10,08,35,16.90
2020,08,10,08,36,16.90
2020,08,10,08,37,16.90
2020,08,10,08,38,16.90
2020,08,10,08,39,16.90
2020,08,10,08,40,17.00
2020,08,10,08,41,17.00
2020,08,10,08,42,17.00
2020,08,10,08,43,17.10
2020,08,10,08,44,17.10
2020,08,10,08,45,17.10
2020,08,10,08,46,17.20
2020,08,10,08,47,17.20
2020,08,10,08,48,17.20
2020,08,10,08,49,17.30
2020,08,10,08,50,17.30
2020,08,10,08,51,17.30
2020,08,10,08,52,17.40
2020,08,10,08,53,17.40
2020,08,10,08,54,17.40
2020,08,10,08,55,17.40
2020,08,10,08,56,17.40
2020,08,10,08,57,17.40
2020,08,10,08,58,17.40
2020,08,10,08,59,17.40
2020,08,10,09,00,17.40
2020,08,10,09,01,17.40
2020,08,10,09,02,17.40
2020,08,10,09,03,17.40
2020,08,10,09,04,17.50
2020,08,10,09,05,17.50
2020,08,10,09,06,17.50
2020,08,10,09,07,17.50
2020,08,10,09,08,17.50
2020,08,10,09,09,17.60
2020,08,10,09,10,17.60
2020,08,10,09,11,17.60
2020,08,10,09,12,17.60
2020,08,10,09,13,17.60
2020,08,10,09,14,17.60
2020,08,10,09,15,17.70
2020,08,10,09,16,17.70
2020,08,10,09,17,17.70
2020,08,10,09,18,17.80
2020,08,10,09,19,17.80
2020,08,10,09,20,17.80
2020,08,10,09,21,17.80
2020,08,10,09,22,17.80
2020,08,10,09,23,17.80
2020,08,10,09,24,17.80
2020,08,10,09,25,17.80
2020,08,10,09,26,17.80
2020,08,10,09,27,17.90
2020,08,10,09,28,17.90
2020,08,10,09,29,17.90
2020,08,10,09,30,17.90
2020,08,10,09,31,18.00
2020,08,10,09,32,18.00
2020,08,10,09,33,18.00
2020,08,10,09,34,18.00
2020,08,10,09,35,18.00
2020,08,10,09,36,18.00
2020,08,10,09,37,17.90
2020,08,10,09,38,17.90
2020,08,10,09,39,17.90
2020,08,10,09,40,17.90
2020,08,10,09,41,17.90
2020,08,10,09,42,17.90
2020,08,10,09,43,17.90
2020,08,10,09,44,17.90
2020,08,10,09,45,18.00
2020,08,10,09,46,17.90
2020,08,10,09,47,18.00
2020,08,10,09,48,18.00
2020,08,10,09,49,18.10
2020,08,10,09,50,18.10
2020,08,10,09,51,18.10
2020,08,10,09,52,18.10
2020,08,10,09,53,18.10
2020,08,10,09,54,18.10
2020,08,10,09,55,18.10
2020,08,10,09,56,18.00
2020,08,10,09,57,17.90
2020,08,10,09,58,17.90
2020,08,10,09,59,17.90
2020,08,10,10,00,17.90
2020,08,10,10,01,17.90
2020,08,10,10,02,17.90
2020,08,10,10,03,17.90
2020,08,10,10,04,17.90
2020,08,10,10,05,18.00
2020,08,10,10,06,18.00
2020,08,10,10,07,18.00
2020,08,10,10,08,18.10
2020,08,10,10,09,18.10
2020,08,10,10,10,18.10
2020,08,10,10,11,18.10
2020,08,10,10,12,18.10
2020,08,10,10,13,18.20
2020,08,10,10,14,18.20
2020,08,10,10,15,18.30
2020,08,10,10,16,18.30
2020,08,10,10,17,18.30
2020,08,10,10,18,18.40
2020,08,10,10,19,18.40
2020,08,10,10,20,18.40
2020,08,10,10,21,18.40
2020,08,10,10,22,18.40
2020,08,10,10,23,18.40
2020,08,10,10,24,18.50
2020,08,10,10,25,18.50
2020,08,10,10,26,18.60
2020,08,10,10,27,18.60
2020,08,10,10,28,18.60
2020,08,10,10,29,18.60
2020,08,10,10,30,18.50
2020,08,10,10,31,18.50
2020,08,10,10,32,18.40
2020,08,10,10,33,18.40
2020,08,10,10,34,18.50
2020,08,10,10,35,18.50
2020,08,10,10,36,18.60
2020,08,10,10,37,18.60
2020,08,10,10,38,18.60
2020,08,10,10,39,18.70
2020,08,10,10,40,18.70
2020,08,10,10,41,18.80
2020,08,10,10,42,18.90
2020,08,10,10,43,18.90
2020,08,10,10,44,19.00
2020,08,10,10,45,19.00
2020,08,10,10,46,19.00
2020,08,10,10,47,19.00
2020,08,10,10,48,19.00
2020,08,10,10,49,19.00
2020,08,10,10,50,19.00
2020,08,10,10,51,19.00
2020,08,10,10,52,19.10
2020,08,10,10,53,19.10
2020,08,10,10,54,19.20
2020,08,10,10,55,19.30
2020,08,10,10,56,19.40
2020,08,10,10,57,19.40
2020,08,10,10,58,19.40
2020,08,10,10,59,19.40
2020,08,10,11,00,19.50
2020,08,10,11,01,19.50
2020,08,10,11,02,19.60
2020,08,10,11,03,19.70
2020,08,10,11,04,19.70
2020,08,10,11,05,19.80
2020,08,10,11,06,19.90
2020,08,10,11,07,19.90
2020,08,10,11,08,19.90
2020,08,10,11,09,19.90
2020,08,10,11,10,19.90
2020,08,10,11,11,19.90
2020,08,10,11,12,19.90
2020,08,10,11,13,19.90
2020,08,10,11,14,19.90
2020,08,10,11,15,20.00
2020,08,10,11,16,20.00
2020,08,10,11,17,20.00
2020,08,10,11,18,20.00
2020,08,10,11,19,20.10
2020,08,10,11,20,20.10
2020,08,10,11,21,20.10
2020,08,10,11,22,20.10
2020,08,10,11,23,20.10
2020,08,10,11,24,20.10
2020,08,10,11,25,20.00
2020,08,10,11,26,20.00
2020,08,10,11,27,20.00
2020,08,10,11,28,20.00
2020,08,10,11,29,20.10
2020,08,10,11,30,20.10
2020,08,10,11,31,20.20
2020,08,10,11,32,20.20
2020,08,10,11,33,20.20
2020,08,10,11,34,20.30
2020,08,10,11,35,20.30
2020,08,10,11,36,20.30
2020,08,10,11,37,20.40
2020,08,10,11,38,20.40
2020,08,10,11,39,20.40
2020,08,10,11,40,20.50
2020,08,10,11,41,20.50
2020,08,10,11,42,20.50
2020,08,10,11,43,20.40
2020,08,10,11,44,20.40
2020,08,10,11,45,20.40
2020,08,10,11,46,20.50
2020,08,10,11,47,20.50
2020,08,10,11,48,20.50
2020,08,10,11,49,20.60
2020,08,10,11,50,20.60
2020,08,10,11,51,20.60
2020,08,10,11,52,20.60
2020,08,10,11,53,20.60
2020,08,10,11,54,20.50
2020,08,10,11,55,20.40
2020,08,10,11,56,20.40
2020,08,10,11,57,20.40
2020,08,10,11,58,20.40
2020,08,10,11,59,20.40
2020,08,10,12,00,20.40
2020,08,10,12,01,20.40
2020,08,10,12,02,20.40
2020,08,10,12,03,20.40
2020,08,10,12,04,20.40
2020,08,10,12,05,20.40
2020,08,10,12,06,20.40
2020,08,10,12,07,20.50
2020,08,10,12,08,20.40
2020,08,10,12,09,20.50
2020,08,10,12,10,20.40
2020,08,10,12,11,20.50
2020,08,10,12,12,20.50
2020,08,10,12,13,20.50
2020,08,10,12,14,20.60
2020,08,10,12,15,20.70
2020,08,10,12,16,20.80
2020,08,10,12,17,20.80
2020,08,10,12,18,20.80
2020,08,10,12,19,20.80
2020,08,10,12,20,20.80
2020,08,10,12,21,20.80
2020,08,10,12,22,20.80
2020,08,10,12,23,20.80
2020,08,10,12,24,20.80
2020,08,10,12,25,20.90
2020,08,10,12,26,20.90
2020,08,10,12,27,21.00
2020,08,10,12,28,21.00
2020,08,10,12,29,21.00
2020,08,10,12,30,21.00
2020,08,10,12,31,20.90
2020,08,10,12,32,20.80
2020,08,10,12,33,20.80
2020,08,10,12,34,20.80
2020,08,10,12,35,20.80
2020,08,10,12,36,20.80
2020,08,10,12,37,21.00
2020,08,10,12,38,21.10
2020,08,10,12,39,21.10
2020,08,10,12,40,21.20
2020,08,10,12,41,21.20
2020,08,10,12,42,21.30
2020,08,10,12,43,21.30
2020,08,10,12,44,21.40
2020,08,10,12,45,21.40
2020,08,10,12,46,21.50
2020,08,10,12,47,21.50
2020,08,10,12,48,21.60
2020,08,10,12,49,21.60
2020,08,10,12,50,21.70
2020,08,10,12,51,21.70
2020,08,10,12,52,21.70
2020,08,10,12,53,21.70
2020,08,10,12,54,21.80
2020,08,10,12,55,21.80
2020,08,10,12,56,21.80
2020,08,10,12,57,21.80
2020,08,10,12,58,21.90
2020,08,10,12,59,22.00
2020,08,10,13,00,22.00
2020,08,10,13,01,22.00
2020,08,10,13,02,22.10
2020,08,10,13,03,22.00
2020,08,10,13,04,22.00
2020,08,10,13,05,21.90
2020,08,10,13,06,21.90
2020,08,10,13,07,21.90
2020,08,10,13,08,21.90
2020,08,10,13,09,21.90
2020,08,10,13,10,21.90
2020,08,10,13,11,21.90
2020,08,10,13,12,21.90
2020,08,10,13,13,21.90
2020,08,10,13,14,21.90
2020,08,10,13,15,21.90
2020,08,10,13,16,21.90
2020,08,10,13,17,21.90
2020,08,10,13,18,21.90
2020,08,10,13,19,21.90
2020,08,10,13,20,22.00
2020,08,10,13,21,22.00
2020,08,10,13,22,22.10
2020,08,10,13,23,22.20
2020,08,10,13,24,22.20
2020,08,10,13,25,22.10
2020,08,10,13,26,22.10
2020,08,10,13,27,22.10
2020,08,10,13,28,22.10
2020,08,10,13,29,22.10
2020,08,10,13,30,22.10
2020,08,10,13,31,22.20
2020,08,10,13,32,22.20
2020,08,10,13,33,22.20
2020,08,10,13,34,22.20
2020,08,10,13,35,22.10
2020,08,10,13,36,22.10
2020,08,10,13,37,22.20
2020,08,10,13,38,22.20
2020,08,10,13,39,22.20
2020,08,10,13,40,22.20
2020,08,10,13,41,22.20
2020,08,10,13,42,22.20
2020,08,10,13,43,22.20
2020,08,10,13,44,22.20
2020,08,10,13,45,22.30
2020,08,10,13,46,22.30
2020,08,10,13,47,22.40
2020,08,10,13,48,22.40
2020,08,10,13,49,22.50
2020,08,10,13,50,22.50
2020,08,10,13,51,22.60
2020,08,10,13,52,22.60
2020,08,10,13,53,22.70
2020,08,10,13,54,22.70
2020,08,10,13,55,22.90
2020,08,10,13,56,22.90
2020,08,10,13,57,22.90
2020,08,10,13,58,22.90
2020,08,10,13,59,23.00
2020,08,10,14,00,23.00
2020,08,10,14,01,23.10
2020,08,10,14,02,23.10
2020,08,10,14,03,23.20
2020,08,10,14,04,23.20
2020,08,10,14,05,23.20
2020,08,10,14,06,23.20
2020,08,10,14,07,23.20
2020,08,10,14,08,23.30
2020,08,10,14,09,23.30
2020,08,10,14,10,23.40
2020,08,10,14,11,23.40
2020,08,10,14,12,23.50
2020,08,10,14,13,23.50
2020,08,10,14,14,23.60
2020,08,10,14,15,23.70
2020,08,10,14,16,23.80
2020,08,10,14,17,23.80
2020,08,10,14,18,23.80
2020,08,10,14,19,23.80
2020,08,10,14,20,23.70
2020,08,10,14,21,23.60
2020,08,10,14,22,23.60
2020,08,10,14,23,23.60
2020,08,10,14,24,23.60
2020,08,10,14,25,23.60
2020,08,10,14,26,23.50
2020,08,10,14,27,23.50
2020,08,10,14,28,23.50
2020,08,10,14,29,23.50
2020,08,10,14,30,23.60
2020,08,10,14,31,23.60
2020,08,10,14,32,23.60
2020,08,10,14,33,23.60
2020,08,10,14,34,23.50
2020,08,10,14,35,23.50
2020,08,10,14,36,23.50
2020,08,10,14,37,23.50
2020,08,10,14,38,23.50
2020,08,10,14,39,23.60
2020,08,10,14,40,23.50
2020,08,10,14,41,23.30
2020,08,10,14,42,23.20
2020,08,10,14,43,23.10
2020,08,10,14,44,23.20
2020,08,10,14,45,23.20
2020,08,10,14,46,23.20
2020,08,10,14,47,23.20
2020,08,10,14,48,23.20
2020,08,10,14,49,23.30
2020,08,10,14,50,23.20
2020,08,10,14,51,23.20
2020,08,10,14,52,23.20
2020,08,10,14,53,23.20
2020,08,10,14,54,23.20
2020,08,10,14,55,23.20
2020,08,10,14,56,23.20
2020,08,10,14,57,23.10
2020,08,10,14,58,23.10
2020,08,10,14,59,23.10
2020,08,10,15,00,23.20
2020,08,10,15,01,23.20
2020,08,10,15,02,23.30
2020,08,10,15,03,23.30
2020,08,10,15,04,23.30
2020,08,10,15,05,23.30
2020,08,10,15,06,23.30
2020,08,10,15,07,23.30
2020,08,10,15,08,23.30
2020,08,10,15,09,23.40
2020,08,10,15,10,23.40
2020,08,10,15,11,23.50
2020,08,10,15,12,23.50
2020,08,10,15,13,23.50
2020,08,10,15,14,23.50
2020,08,10,15,15,23.50
2020,08,10,15,16,23.40
2020,08,10,15,17,23.50
2020,08,10,15,18,23.50
2020,08,10,15,19,23.60
2020,08,10,15,20,23.60
2020,08,10,15,21,23.70
2020,08,10,15,22,23.70
2020,08,10,15,23,23.70
2020,08,10,15,24,23.60
2020,08,10,15,25,23.60
2020,08,10,15,26,23.60
2020,08,10,15,27,23.60
2020,08,10,15,28,23.60
2020,08,10,15,29,23.60
2020,08,10,15,30,23.50
2020,08,10,15,31,23.50
2020,08,10,15,32,23.50
2020,08,10,15,33,23.60
2020,08,10,15,34,23.60
2020,08,10,15,35,23.60
2020,08,10,15,36,23.70
2020,08,10,15,37,23.70
2020,08,10,15,38,23.80
2020,08,10,15,39,23.80
2020,08,10,15,40,23.80
2020,08,10,15,41,23.80
2020,08,10,15,42,23.80
2020,08,10,15,43,23.80
2020,08,10,15,44,23.70
2020,08,10,15,45,23.70
2020,08,10,15,46,23.60
2020,08,10,15,47,23.60
2020,08,10,15,48,23.50
2020,08,10,15,49,23.50
2020,08,10,15,50,23.50
2020,08,10,15,51,23.50
2020,08,10,15,52,23.60
2020,08,10,15,53,23.60
2020,08,10,15,54,23.60
2020,08,10,15,55,23.60
2020,08,10,15,56,23.70
2020,08,10,15,57,23.80
2020,08,10,15,58,23.80
2020,08,10,15,59,23.80
2020,08,10,16,00,23.80
2020,08,10,16,01,23.80
2020,08,10,16,02,23.80
2020,08,10,16,03,23.80
2020,08,10,16,04,23.80
2020,08,10,16,05,23.80
2020,08,10,16,06,23.90
2020,08,10,16,07,24.00
2020,08,10,16,08,24.00
2020,08,10,16,09,24.10
2020,08,10,16,10,24.10
2020,08,10,16,11,24.10
2020,08,10,16,12,24.20
2020,08,10,16,13,24.20
2020,08,10,16,14,24.10
2020,08,10,16,15,24.10
2020,08,10,16,16,24.10
2020,08,10,16,17,24.10
2020,08,10,16,18,24.10
2020,08,10,16,19,24.00
2020,08,10,16,20,24.00
2020,08,10,16,21,24.00
2020,08,10,16,22,24.00
2020,08,10,16,23,24.00
2020,08,10,16,24,24.00
2020,08,10,16,25,24.00
2020,08,10,16,26,24.00
2020,08,10,16,27,24.00
2020,08,10,16,28,23.90
2020,08,10,16,29,24.00
2020,08,10,16,30,24.00
2020,08,10,16,31,23.90
2020,08,10,16,32,23.90
2020,08,10,16,33,23.90
2020,08,10,16,34,23.90
2020,08,10,16,35,23.90
2020,08,10,16,36,23.80
2020,08,10,16,37,23.80
2020,08,10,16,38,23.70
2020,08,10,16,39,23.60
2020,08,10,16,40,23.60
2020,08,10,16,41,23.60
2020,08,10,16,42,23.60
2020,08,10,16,43,23.60
2020,08,10,16,44,23.70
2020,08,10,16,45,23.70
2020,08,10,16,46,23.80
2020,08,10,16,47,23.80
2020,08,10,16,48,23.80
2020,08,10,16,49,23.80
2020,08,10,16,50,23.80
2020,08,10,16,51,23.70
2020,08,10,16,52,23.70
2020,08,10,16,53,23.70
2020,08,10,16,54,23.70
2020,08,10,16,55,23.70
2020,08,10,16,56,23.70
2020,08,10,16,57,23.70
2020,08,10,16,58,23.70
2020,08,10,16,59,23.70
2020,08,10,17,00,23.70
2020,08,10,17,01,23.70
2020,08,10,17,02,23.70
2020,08,10,17,03,23.70
2020,08,10,17,04,23.70
2020,08,10,17,05,23.80
2020,08,10,17,06,23.80
2020,08,10,17,07,23.80
2020,08,10,17,08,23.80
2020,08,10,17,09,23.70
2020,08,10,17,10,23.70
2020,08,10,17,11,23.70
2020,08,10,17,12,23.70
2020,08,10,17,13,23.70
2020,08,10,17,14,23.70
2020,08,10,17,15,23.80
2020,08,10,17,16,23.80
2020,08,10,17,17,23.90
2020,08,10,17,18,23.90
2020,08,10,17,19,24.00